www.pogodaiklimat.ru

Погода и климат >> Архив погоды >> Россия >> Ханты-Мансийский АО >> Няксимволь


АРХИВ ПОГОДЫ в Няксимволе

Время (UTC), дата Ветер
(напр.,м/с)
 
Видим.   Явления Облачность Т
(С)
Тd
(С)
f
(%)
Тe
(С)
Тes
(С)
Комфортность P
(гПа)
Po
(гПа)
Тmin
(С)
Tmax
(С)
R
(мм)
R24
(мм)
S
(см)
12 11.06 З 2 50 км в посл. час дождь {гроза} 8/8 1000 м
[Sc Ac trans]
+19.1 +12.9 67 +21 +22 комфорт 1004.9 999.0
15 11.06 СЗ 2
{11}
50 км 8/3 1000 м
[Sc Ac trans]
+16.5 +8.8 60 +17 +17 1005.1 999.1 +23.0 0.0
18 11.06 штиль 0 50 км 8/8 1000 м
[Sc Ac trans]
+12.1 +9.9 86 +12 +12 1004.1 998.0
21 11.06 ЮЗ 1 20 км 8/8 1000 м
[Sc]
+9.6 +8.8 95 +9 +9 1002.9 996.8
00 12.06 штиль 0 50 км 8/8 1000 м
[Sc]
+11.3 +10.4 94 +11 +11 1002.1 996.0
03 12.06 ЮЗ 2 20 км слаб. дождь 10/10 1000 м
[Sc Ac As]
+12.6 +12.0 96 +12 +12 1000.7 994.7 +8.8 1
06 12.06 ЮЗ 3 50 км в посл. час дождь 9/9 1000 м
[Cb cap]
+13.4 +12.3 93 +12 +13 999.3 993.3
09 12.06 З 5
{14}
50 км {ливн. осадки} 8/8 1000 м
[Sc]
+14.4 +6.0 57 +13 +14 999.7 993.7
12 12.06 З 4
{12}
50 км слаб. дождь 10/10 600 м
[Sc]
+10.4 +7.8 84 +8 +8 1001.0 994.9
15 12.06 СЗ 3
{11}
50 км слаб. дождь 10/10 600 м
[Sc]
+6.8 +6.2 96 +4 +4 1003.4 997.2 +15.4 5
18 12.06 СЗ 3 50 км слаб. дождь 10/10 600 м
[Sc]
+4.7 +3.0 89 +1 +1 1005.0 998.8
21 12.06 СЗ 1 20 км 6/6 1000 м
[Sc]
+3.4 +2.1 91 +2 +2 1005.4 999.2
00 13.06 З 1 50 км 8/8 1000 м
[Sc]
+3.8 +2.0 88 +2 +2 1005.6 999.3
03 13.06 СЗ 5-10
{11}
50 км 8/8 1000 м
[Sc]
+5.6 -0.6 64 +2 +2 1005.6 999.4 +2.2 1
06 13.06 СЗ 6-13
{17}
50 км 10/10 1000 м
[Sc]
+4.7 +0.4 74 -0 -0 1006.7 1000.4
09 13.06 З 5
{13}
50 км 10/10 1000 м
[Sc]
+7.3 -0.1 59 +4 +4 1006.7 1000.5
12 13.06 З 5-10
{14}
50 км 10/10 1000 м
[Sc]
+7.6 +0.3 60 +4 +4 1007.3 1001.1
15 13.06 СЗ 4-12
{14}
50 км {ливн. осадки} 10/10 1000 м
[Sc]
+5.5 -0.3 66 +2 +2 1008.2 1001.9 +8.1 0.5
18 13.06 З 4
{12}
50 км 10/10 1000 м
[Sc]
+4.3 -0.3 72 0 0 1007.7 1001.4
21 13.06 З 4 20 км 10/10 1000 м
[Sc]
+4.3 -0.8 69 0 0 1006.5 1000.2
00 14.06 З 4
{10}
50 км 10/10 1000 м
[Sc]
+3.9 -1.7 67 -0 -0 1005.7 999.4
03 14.06 СЗ 5-12
{13}
50 км 10/10 1000 м
[Sc]
+5.3 -2.2 58 +1 +1 1006.0 999.8 +3.9
06 14.06 СЗ 4
{13}
50 км 9/9 1000 м
[Sc]
+6.7 -2.4 52 +4 +4 1006.4 1000.2
09 14.06 З 4
{11}
50 км 8/8 1000 м
[Sc]
+9.9 -2.2 43 +8 +9 1006.7 1000.6
12 14.06 СЗ 4
{10}
50 км 8/6 1000 м
[Sc Ci fib]
+9.5 -2.4 43 +7 +9 1007.4 1001.2
15 14.06 З 4
{11}
50 км 9/8 1000 м
[Sc Ci fib]
+9.1 -1.3 48 +7 +7 1007.7 1001.5 +10.9
18 14.06 З 2 50 км 8/8 1000 м
[Sc]
+6.7 +0.6 65 +5 +5 1007.7 1001.5
21 14.06 ЮЗ 1 20 км 4/4 1000 м
[Sc]
+3.2 +0.4 82 +2 +2 1007.4 1001.1
00 15.06 ЮЗ 1 50 км 9/0
[As op]
+1.3 +0.3 93 -1 -0 1006.9 1000.5
03 15.06 З 2 50 км 8/0
[Ac trans Cc]
+8.0 +2.0 66 +6 +10 1005.7 999.5 +0.5
06 15.06 Ю 3 50 км 10/0
[As op Cs]
+10.7 +2.3 56 +9 +12 1003.9 997.8
09 15.06 З 3 50 км 10/8 1000 м
[Sc As op]
+11.5 +2.4 54 +10 +10 1002.8 996.7
12 15.06 Ю 2 50 км слаб. дождь 10/10 600 м
[Sc]
+9.7 +6.8 82 +8 +8 1002.3 996.2
15 15.06 З 1 50 км {дождь} 10/10 1000 м
[Sc]
+9.2 +6.3 82 +9 +9 1001.9 995.8 +13.1 0.7
18 15.06 З 1 50 км 6/0
[Ac trans]
+7.6 +5.3 85 +7 +7 1001.8 995.7
21 15.06 штиль 0 20 км 4/0
[Ac trans]
+3.6 +2.3 91 +2 +2 1001.7 995.5
00 16.06 штиль 0 50 км 3/0
[As op]
+3.2 +2.0 92 +2 +3 1001.8 995.5
03 16.06 СЗ 4 50 км 6/0
[Ci fib]
+8.1 +1.0 61 +5 +8 1001.6 995.4 +0.8
06 16.06 СЗ 3 50 км 10/10 1000 м
[Sc]
+9.7 -0.5 49 +8 +8 1001.3 995.2
09 16.06 СЗ 4 50 км 8/8 1000 м
[Cu med, cong]
+11.1 -2.1 40 +9 +11 1001.3 995.2
12 16.06 СЗ 2 50 км 10/10 1000 м
[Sc]
+11.1 -1.0 43 +10 +10 1001.8 995.7
15 16.06 СВ 1 50 км в посл. час ливневой дождь 9/9 1000 м
[Cb cap]
+9.7 +4.3 69 +9 +10 1002.1 996.0 +12.1 0.0
18 16.06 ЮЗ 1 50 км 3/0
[Ac trans]
+6.5 +2.3 75 +6 +6 1001.9 995.7
21 16.06 Ю 2 20 км 5/0
[Ac trans]
+2.7 +1.5 92 -1 -1 1001.0 994.8
00 17.06 Ю 1 50 км 8/0
[Ac trans]
+4.3 +2.9 91 +3 +3 1000.0 993.8
03 17.06 Ю 2 50 км 10/0
[Ac und]
+8.8 +5.0 77 +7 +9 999.4 993.2 +2.5
06 17.06 Ю 1 50 км в посл. час дождь 10/10 1000 м
[Sc]
+9.3 +7.0 86 +9 +9 999.2 993.1
09 17.06 СЗ 2 50 км 10/10 1000 м
[Sc]
+11.6 +5.0 64 +11 +11 999.5 993.4
12 17.06 СЗ 3 50 км 9/9 1000 м
[Sc]
+13.3 +3.7 52 +12 +13 999.9 993.8
15 17.06 СЗ 4 50 км 8/8 1000 м
[Sc]
+13.0 +3.4 52 +12 +12 1001.6 995.6 +14.6 0.6
18 17.06 З 1 50 км 4/4 1000 м
[Sc]
+7.9 +1.8 65 +7 +7 1003.1 996.9
21 17.06 З 1 20 км 8/8 1000 м
[Sc]
+6.3 +1.6 72 +5 +5 1003.1 996.9
00 18.06 З 2 50 км 9/9 1000 м
[Sc]
+6.5 +2.1 73 +4 +4 1002.8 996.7
03 18.06 З 4 50 км 9/6 1000 м
[Sc Ac As]
+9.1 +1.9 61 +6 +7 1003.3 997.1 +5.2

 

Местоположение метеостанции Няксимволь (Ханты-Мансийский АО, Россия): широта 62.43 долгота 60.87 высота над уровнем моря 51 м.

В архиве по умолчанию представлена погода в Няксимволе за последнюю неделю. Архивные данные за месяц целиком и за предыдущие месяцы, начиная с января 2011 года, Вы можете получить, выбрав интересующий диапазон дат из раскрывающегося списка и нажав кнопку "Ввод!".


*Определитесь, кто Вы:
робот инопланетянин человек

Внимание! Время в таблицах - всемирное. Для получения местного времени необходимо прибавить поправку, которая равна 5 ч.

Смотрите также архив погоды в соседних городах и на ближайших метеорологических станциях:

Погода в Приполярном (Ханты-Мансийский АО, Россия) (101 км)
Погода в Агирише (Ханты-Мансийский АО, Россия) (125 км)
Погода в Бурмантово (Свердловская область, Россия) (130 км)
Погода в Сосьве (Ханты-Мансийский АО, Россия) (149 км)
Погода в Атымье (Свердловская область, Россия) (171 км)
Погода в Югорске (Ханты-Мансийский АО, Россия) (182 км)
Погода в Ивделе (Свердловская область, Россия) (196 км)
Погода в Игриме (Ханты-Мансийский АО, Россия) (201 км)
Погода в Саранпауле (Ханты-Мансийский АО, Россия) (206 км)
Погода в Вонъегане (Ханты-Мансийский АО, Россия) (216 км)

Пояснения к столбцам:

Ветер - указаны скорость ветра в м/с - средняя за 10 мин, порывы в срок и между сроками (в фигурных скобках) и направление, откуда дует ветер: С - северный, СВ - северо-восточный, В - восточный, ЮВ - юго-восточный, Ю - южный, ЮЗ - юго-западный, З - западный, СЗ - северо-западный.
Видимость - горизонтальная дальность видимости в метрах или километрах. При видимости от 1 до 10 км при отсутствии осадков обычно наблюдается дымка, при ухудшении видимости до 1 км и менее - туман. В сухую погоду видимость может ухудшаться дымом, пылью или мглою.
Явления - указаны атмосферные явления, наблюдавшиеся в срок или в последний час перед сроком; фигурными скобками обозначены явления, наблюдавшиеся между сроками (за 1-3 часа до срока); квадратными скобками обозначены град или гололедные отложения с указанием их диаметра в мм.
Облачность - указаны через наклонную черту общая и нижняя облачность в баллах и высота нижней границы облаков в метрах; квадратными скобками обозначены формы облаков: Ci - перистые, Cs - перисто-слоистые, Cc - перисто-кучевые, Ac - высококучевые, As - высокослоистые, Sc - слоисто-кучевые, Ns - слоисто-дождевые, Cu - кучевые, Cb - кучево-дождевые. Подробнее классификацию облаков см. в Атласе облаков (PDF).
T - Температура воздуха - температура, измеренная на высоте 2 м над землей.
Td - Температура точки росы - температура, при понижении до которой содержащийся в воздухе водяной пар достигнет насыщения.
f - Относительная влажность воздуха - влажноcть воздуха, измеренная на высоте 2 м над землей.
Te - Эффективная температура - температура, которую ощущает одетый по сезону человек в тени. Характеристика душности погоды. При расчете учитывается влияние влажности воздуха и скорости ветра на теплоощущения человека.
Tes - Эффективная температура на солнце - температура, которую ощущает человек, с поправкой на солнечный нагрев. Характеристика знойности погоды. Зависит от высоты солнца над горизонтом, облачности и скорости ветра. Ночью, в пасмурную погоду, а также при ветре 12 м/с и более поправка равна нулю.
P - Атмосферное давление - приведенное к уровню моря атмосферное давление.
Po - Атмосферное давление - измеренное на уровне метеостанции атмосферное давление.
Tmin - Минимальная температура - минимум температуры воздуха на высоте 2 м над землей.
Tmax - Максимальная температура - максимум температуры воздуха на высоте 2 м над землей.
R - Количество осадков - Количество выпавших осадков за период времени, мм. При наведении курсора мыши на число - период времени, за который выпало указанное количество осадков.
R24 - Количество осадков - Количество выпавших осадков за 24 часа, мм.
S - Снежный покров - Высота снежного покрова, см. При наведении курсора мыши на число - состояние снежного покрова и степень покрытия местности в баллах.